Home > Weather > Lanchow > Past weeks

Flag for China Past Weather in Lanchow, Gansu, China — Yesterday and Last 2 Weeks

Now
66 °F

Sunny.


Feels Like: 66 °F
Forecast: 61 / 85 °F
Wind: 1 mph from North

Location: Lanzhou / Zhongchuan

Current Time: Jul 31, 2016 at 8:43:35 AM

Latest Report: Jul 31, 2016 at 8:00 AM


Visibility: 10 mi

Pressure: 30.01 "Hg (25.09 "Hg at 1531m altitude)

Humidity: 68%

Dew Point: 55 °F

Location of LanchowLocation

Past Weather in Lanchow — Graph

°F

Lanchow Temperature Yesterday

Maximum temperature yesterday: 86 °F (at 3:00 PM)
Minimum temperature yesterday: 59 °F (at 5:00 AM)
Average temperature yesterday: 74 °F

High & Low Weather Summary for the Past Weeks

 TemperatureHumidityPressure
High88 °F (Jul 29, 5:00 PM)100% (Jul 19, 1:00 AM)30.18 "Hg (Jul 19, 1:00 AM)
Low50 °F (Jul 27, 6:00 AM)17% (Jul 28, 4:00 PM)29.80 "Hg (Jul 20, 5:00 PM)
Average68 °F65%29.98 "Hg
* Reported Jul 16 7:00 AM — Jul 31 7:00 AM, Lanchow, Weather by CustomWeather, © 2016

Note: Actual official high and low records may vary slightly from our data, if they occured in-between our weather recording intervals... More about our weather records

Advertising

Lanchow Weather History for the Previous 24 Hours

Scroll right to see more
 ConditionsComfort  
Time TempWeatherWind HumidityBarometerVisibility
7:00 AM
Sun, Jul 31
61 °FClear.3 mph83%30.01 "Hg10 mi
6:00 AM59 °FClear.3 mph82%30.01 "Hg10 mi
5:00 AM59 °FClear.3 mph88%29.98 "Hg10 mi
4:00 AM63 °FPassing clouds.3 mph77%29.98 "HgN/A
3:00 AM68 °FClear.1 mph64%29.98 "Hg10 mi
2:00 AM72 °FPassing clouds.3 mph57%30.01 "HgN/A
1:00 AM72 °FPassing clouds.3 mph53%30.01 "HgN/A
12:00 AM73 °FPassing clouds.3 mph47%29.98 "HgN/A
11:00 PM
Sat, Jul 30
75 °FClear.3 mph44%29.98 "Hg10 mi
10:00 PM75 °FClear.3 mph47%29.95 "Hg10 mi
9:00 PM77 °FSunny.3 mph44%29.95 "Hg10 mi
8:00 PM81 °FSunny.3 mph39%29.92 "Hg10 mi
7:00 PM86 °FSunny.1 mph25%29.89 "Hg10 mi
6:00 PM86 °FPassing clouds.3 mph24%29.89 "HgN/A
5:00 PM86 °FScattered clouds.1 mph31%29.92 "HgN/A
4:00 PM86 °FScattered clouds.6 mph33%29.92 "HgN/A
3:00 PM86 °FPassing clouds.3 mph40%29.95 "HgN/A
2:00 PM84 °FPassing clouds.3 mph45%29.95 "HgN/A
1:00 PM81 °FPassing clouds.3 mph51%29.98 "HgN/A
12:00 PM77 °FSunny.3 mph57%29.98 "Hg10 mi
11:00 AM75 °FPassing clouds.3 mph61%30.01 "HgN/A
10:00 AM73 °FSunny.3 mph65%29.98 "Hg10 mi
9:00 AM70 °FPassing clouds.3 mph69%29.98 "HgN/A
8:00 AM66 °FSunny.1 mph73%29.98 "Hg10 mi
Weather by CustomWeather, © 2016

See weather overviewHow to use our weather pages